CSN3207 ZGHA-ZYTX

Flight info

Callsign CSN3207
Flight time N/A
Altitude 39100
Route GUDRO W56 LEBUN/K0902S1220 W56 NUDKU/K0902S1250 W56 VYK W34 PAMRU W244 IGMOR W36 ENVAV W243 OTBUL W35 CHG A575 OMDUS
Aircraft A359/H-SDE2E3GHIJ3J4J5LM1ORWXY/LB1D1

Departure

Time 2026-04-17 06:42
Airport Changsha Huanghua International Airport (ZGHA)

Arrival

Time N/A
Airport Shenyang Taoxian International Airport (ZYTX)
Time Latitude Longitude Altitude Speed Heading
2026-04-17 06:21 28.18742 113.21599 220 ft 0 kts 268°
2026-04-17 06:33 28.18742 113.21600 220 ft 1 kts 268°
2026-04-17 06:34 28.18743 113.21624 220 ft 6 kts 268°
2026-04-17 06:34 28.18761 113.21674 221 ft 7 kts 220°
2026-04-17 06:34 28.18797 113.21688 221 ft 0 kts 180°
2026-04-17 06:36 28.18785 113.21688 221 ft 7 kts 180°
2026-04-17 06:37 28.18736 113.21689 223 ft 7 kts 175°
2026-04-17 06:37 28.18687 113.21692 226 ft 7 kts 178°
2026-04-17 06:37 28.18638 113.21693 223 ft 6 kts 173°
2026-04-17 06:37 28.18601 113.21728 221 ft 6 kts 120°
2026-04-17 06:38 28.18579 113.21777 224 ft 7 kts 128°
2026-04-17 06:38 28.18540 113.21808 220 ft 6 kts 160°
2026-04-17 06:38 28.18491 113.21814 223 ft 7 kts 176°
2026-04-17 06:38 28.18443 113.21818 221 ft 6 kts 176°
2026-04-17 06:39 28.18395 113.21821 221 ft 7 kts 176°
2026-04-17 06:39 28.18373 113.21822 224 ft 2 kts 176°
2026-04-17 06:39 28.18301 113.21826 224 ft 16 kts 177°
2026-04-17 06:39 28.18191 113.21834 222 ft 17 kts 176°
2026-04-17 06:40 28.18070 113.21842 224 ft 19 kts 177°
2026-04-17 06:40 28.17939 113.21849 222 ft 19 kts 177°
2026-04-17 06:40 28.17815 113.21858 223 ft 17 kts 173°
2026-04-17 06:40 28.17744 113.21935 226 ft 14 kts 100°
2026-04-17 06:41 28.17773 113.22033 225 ft 11 kts 35°
2026-04-17 06:41 28.17835 113.22042 225 ft 0 kts 359°
2026-04-17 06:42 28.17887 113.22041 224 ft 33 kts 358°
2026-04-17 06:42 28.18387 113.22009 224 ft 108 kts 356°
2026-04-17 06:42 28.19324 113.21946 241 ft 166 kts 356°
2026-04-17 06:42 28.20522 113.21848 992 ft 169 kts 355°
2026-04-17 06:43 28.21709 113.21767 1802 ft 180 kts 356°
2026-04-17 06:43 28.23067 113.21694 2218 ft 205 kts 359°
2026-04-17 06:43 28.24504 113.21638 2894 ft 208 kts 358°
2026-04-17 06:43 28.25965 113.21554 3609 ft 212 kts 356°
2026-04-17 06:44 28.27449 113.21591 4280 ft 215 kts 11°
2026-04-17 06:44 28.28794 113.22330 4909 ft 220 kts 41°
2026-04-17 06:44 28.29757 113.23689 5571 ft 222 kts 54°
2026-04-17 06:44 28.30610 113.25165 6212 ft 225 kts 55°
2026-04-17 06:45 28.31466 113.26664 6824 ft 229 kts 56°
2026-04-17 06:45 28.32349 113.28203 7416 ft 234 kts 55°
2026-04-17 06:45 28.33245 113.29751 7999 ft 239 kts 56°
2026-04-17 06:45 28.34181 113.31370 8420 ft 252 kts 56°
2026-04-17 06:46 28.35182 113.33084 8710 ft 271 kts 56°
2026-04-17 06:46 28.36265 113.34930 9098 ft 285 kts 56°
2026-04-17 06:46 28.37365 113.36796 9659 ft 291 kts 56°
2026-04-17 06:46 28.38524 113.38712 10182 ft 298 kts 52°
2026-04-17 06:47 28.40033 113.40408 10445 ft 312 kts 33°
2026-04-17 06:47 28.42032 113.41447 10683 ft 326 kts 16°
2026-04-17 06:47 28.44300 113.42035 10917 ft 339 kts
2026-04-17 06:47 28.46677 113.42367 11141 ft 351 kts
2026-04-17 06:48 28.49131 113.42580 11419 ft 361 kts
2026-04-17 06:48 28.51652 113.42758 11839 ft 365 kts
2026-04-17 06:48 28.54192 113.42951 12299 ft 369 kts
2026-04-17 06:48 28.56788 113.43183 12751 ft 373 kts
2026-04-17 06:49 28.59386 113.43449 13204 ft 376 kts
2026-04-17 06:49 28.61957 113.43735 13636 ft 379 kts
2026-04-17 06:49 28.64616 113.44046 14046 ft 383 kts
2026-04-17 06:49 28.67265 113.44364 14453 ft 385 kts
2026-04-17 06:50 28.69918 113.44685 14854 ft 388 kts
2026-04-17 06:50 28.72613 113.45009 15264 ft 390 kts
2026-04-17 06:50 28.75342 113.45336 15687 ft 393 kts
2026-04-17 06:50 28.78074 113.45661 16115 ft 395 kts
2026-04-17 06:51 28.80829 113.45986 16516 ft 398 kts
2026-04-17 06:51 28.83592 113.46310 16915 ft 400 kts
2026-04-17 06:51 28.86371 113.46636 17321 ft 403 kts
2026-04-17 06:51 28.89173 113.46966 17722 ft 405 kts
2026-04-17 06:52 28.91966 113.47296 18086 ft 408 kts
2026-04-17 06:52 28.94839 113.47640 18310 ft 415 kts
2026-04-17 06:52 28.97715 113.47979 18455 ft 422 kts
2026-04-17 06:52 29.00641 113.48321 18605 ft 429 kts
2026-04-17 06:53 29.03633 113.48671 18742 ft 436 kts
2026-04-17 06:53 29.06672 113.49030 18871 ft 442 kts
2026-04-17 06:53 29.09746 113.49395 18993 ft 447 kts
2026-04-17 06:53 29.12866 113.49766 19156 ft 451 kts
2026-04-17 06:54 29.15940 113.50134 19759 ft 442 kts
2026-04-17 06:54 29.18983 113.50504 20472 ft 433 kts
2026-04-17 06:54 29.21984 113.50868 20959 ft 432 kts
2026-04-17 06:54 29.24968 113.51225 21323 ft 432 kts
2026-04-17 06:55 29.27976 113.51581 21673 ft 434 kts
2026-04-17 06:55 29.30987 113.51936 22001 ft 436 kts
2026-04-17 06:55 29.33968 113.52288 22306 ft 438 kts
2026-04-17 06:55 29.36993 113.52647 22617 ft 440 kts
2026-04-17 06:56 29.40058 113.53011 22927 ft 442 kts
2026-04-17 06:56 29.43132 113.53378 23214 ft 444 kts
2026-04-17 06:56 29.46206 113.53746 23525 ft 446 kts
2026-04-17 06:56 29.49307 113.54117 23782 ft 448 kts
2026-04-17 06:57 29.52363 113.54483 24019 ft 450 kts
2026-04-17 06:57 29.55506 113.54858 24267 ft 452 kts
2026-04-17 06:57 29.58644 113.55235 24503 ft 454 kts
2026-04-17 06:57 29.61788 113.55612 24754 ft 456 kts
2026-04-17 06:58 29.64965 113.55993 25004 ft 458 kts
2026-04-17 06:58 29.68133 113.56374 25244 ft 461 kts
2026-04-17 06:58 29.71344 113.56760 25482 ft 463 kts
2026-04-17 06:58 29.74572 113.57147 25733 ft 465 kts
2026-04-17 06:59 29.77806 113.57536 25986 ft 467 kts
2026-04-17 06:59 29.81051 113.57926 26232 ft 470 kts
2026-04-17 06:59 29.84260 113.58313 26482 ft 472 kts
2026-04-17 06:59 29.87527 113.58706 26739 ft 474 kts
2026-04-17 07:00 29.90833 113.59108 27003 ft 477 kts
2026-04-17 07:00 29.94124 113.59778 27249 ft 485 kts
2026-04-17 07:00 29.97363 113.61003 27518 ft 492 kts 16°
2026-04-17 07:00 30.00545 113.62445 27796 ft 496 kts 18°
2026-04-17 07:01 30.03733 113.63993 28091 ft 499 kts 19°
2026-04-17 07:01 30.06945 113.65612 28379 ft 502 kts 19°
2026-04-17 07:01 30.10163 113.67258 28671 ft 505 kts 19°
2026-04-17 07:01 30.13382 113.68904 28967 ft 508 kts 19°
2026-04-17 07:02 30.16566 113.70523 29265 ft 510 kts 19°
2026-04-17 07:02 30.19896 113.72204 29567 ft 513 kts 19°
2026-04-17 07:02 30.23122 113.73826 29853 ft 516 kts 19°
2026-04-17 07:02 30.26474 113.75505 30155 ft 519 kts 19°
2026-04-17 07:03 30.29746 113.77144 30418 ft 521 kts 18°
2026-04-17 07:03 30.33142 113.78845 30678 ft 524 kts 18°
2026-04-17 07:03 30.36422 113.80489 30935 ft 527 kts 18°
2026-04-17 07:03 30.39819 113.82194 31214 ft 529 kts 18°
2026-04-17 07:04 30.43218 113.83901 31484 ft 532 kts 18°
2026-04-17 07:04 30.46614 113.85607 31761 ft 534 kts 18°
2026-04-17 07:04 30.50027 113.87325 32017 ft 537 kts 18°
2026-04-17 07:04 30.53472 113.89061 32257 ft 539 kts 18°
2026-04-17 07:05 30.56910 113.90794 32510 ft 542 kts 18°
2026-04-17 07:05 30.60392 113.92551 32764 ft 544 kts 18°
2026-04-17 07:05 30.63823 113.94284 32985 ft 546 kts 18°
2026-04-17 07:05 30.67309 113.96027 33276 ft 546 kts 17°
2026-04-17 07:06 30.70829 113.97727 33652 ft 546 kts 17°
2026-04-17 07:06 30.74321 113.99510 34011 ft 547 kts 19°
2026-04-17 07:06 30.77776 114.01415 34309 ft 549 kts 20°
2026-04-17 07:06 30.81211 114.03359 34586 ft 549 kts 20°
2026-04-17 07:07 30.84636 114.05278 34880 ft 549 kts 20°
2026-04-17 07:07 30.88103 114.07195 35158 ft 550 kts 19°
2026-04-17 07:07 30.91559 114.09086 35447 ft 550 kts 19°
2026-04-17 07:07 30.95036 114.10977 35727 ft 550 kts 19°
2026-04-17 07:08 30.98454 114.12831 36018 ft 550 kts 19°
2026-04-17 07:08 31.01946 114.14725 36318 ft 551 kts 19°
2026-04-17 07:08 31.05426 114.16618 36617 ft 551 kts 19°
2026-04-17 07:08 31.08889 114.18501 36933 ft 551 kts 18°
2026-04-17 07:09 31.12368 114.20390 37245 ft 551 kts 18°
2026-04-17 07:09 31.15856 114.22286 37570 ft 551 kts 18°
2026-04-17 07:09 31.19324 114.24172 37925 ft 550 kts 18°
2026-04-17 07:09 31.22781 114.26056 38238 ft 549 kts 18°
2026-04-17 07:10 31.26257 114.27956 38525 ft 549 kts 18°
2026-04-17 07:10 31.29721 114.29849 38773 ft 549 kts 18°
2026-04-17 07:10 31.33220 114.31599 38982 ft 544 kts 12°
2026-04-17 07:10 31.36802 114.32777 39070 ft 533 kts
2026-04-17 07:11 31.40463 114.33311 39086 ft 522 kts 355°
2026-04-17 07:11 31.47651 114.33700 39081 ft 518 kts 352°
2026-04-17 07:12 31.54849 114.33860 39081 ft 518 kts 352°
2026-04-17 07:12 31.62061 114.34017 39081 ft 519 kts 352°
2026-04-17 07:13 31.69314 114.34214 39080 ft 519 kts 353°
2026-04-17 07:13 31.76536 114.34438 39084 ft 519 kts 353°
2026-04-17 07:14 31.83703 114.34662 39074 ft 519 kts 353°
2026-04-17 07:14 31.90945 114.34860 39078 ft 519 kts 352°
2026-04-17 07:15 31.98142 114.35040 39078 ft 519 kts 352°
2026-04-17 07:15 32.05399 114.35243 39082 ft 519 kts 353°
2026-04-17 07:16 32.12628 114.35459 39083 ft 519 kts 353°
2026-04-17 07:16 32.19803 114.35678 39083 ft 519 kts 353°
2026-04-17 07:17 32.27023 114.35903 39082 ft 520 kts 353°
2026-04-17 07:17 32.37908 114.36800 39085 ft 524 kts 356°
2026-04-17 07:18 32.45183 114.37539 39079 ft 524 kts 356°
2026-04-17 07:18 32.52430 114.38236 39082 ft 523 kts 356°
2026-04-17 07:19 32.59683 114.38906 39078 ft 523 kts 356°
2026-04-17 07:19 32.66928 114.39571 39084 ft 523 kts 356°
2026-04-17 07:20 32.74189 114.40247 39085 ft 523 kts 356°
2026-04-17 07:20 32.81434 114.40919 39087 ft 522 kts 356°
2026-04-17 07:21 32.88672 114.41593 39085 ft 522 kts 356°
2026-04-17 07:21 32.95866 114.42265 39088 ft 521 kts 356°
2026-04-17 07:22 33.03157 114.42947 39086 ft 521 kts 356°
2026-04-17 07:22 33.10323 114.43620 39086 ft 520 kts 356°
2026-04-17 07:23 33.17538 114.44298 39088 ft 519 kts 356°
2026-04-17 07:23 33.24755 114.44977 39084 ft 518 kts 356°
2026-04-17 07:24 33.31921 114.45658 39087 ft 517 kts 356°
2026-04-17 07:24 33.37883 114.46221 39088 ft 516 kts 356°
2026-04-17 07:25 33.46258 114.47003 39089 ft 515 kts 356°
2026-04-17 07:25 33.52184 114.47560 39092 ft 514 kts 356°
2026-04-17 07:26 33.59296 114.48231 39087 ft 513 kts 356°
2026-04-17 07:26 33.66456 114.48914 39087 ft 513 kts 356°
2026-04-17 07:27 33.73518 114.49571 39086 ft 512 kts 356°
2026-04-17 07:27 33.80696 114.50230 39080 ft 521 kts 356°
2026-04-17 07:28 33.87955 114.50913 39084 ft 525 kts 357°
2026-04-17 07:28 33.95248 114.51605 39088 ft 524 kts 357°
2026-04-17 07:29 34.02521 114.52294 39088 ft 524 kts 357°
2026-04-17 07:29 34.09770 114.52980 39090 ft 523 kts 357°
2026-04-17 07:30 34.17026 114.53667 39087 ft 522 kts 357°
2026-04-17 07:30 34.24231 114.54351 39083 ft 521 kts 357°
2026-04-17 07:31 34.31486 114.55040 39088 ft 520 kts 357°
2026-04-17 07:31 34.38703 114.55728 39085 ft 520 kts 357°
2026-04-17 07:32 34.45939 114.56420 39081 ft 519 kts 357°
2026-04-17 07:32 34.53101 114.57104 39080 ft 519 kts 357°
2026-04-17 07:33 34.60277 114.57781 39079 ft 518 kts 357°
2026-04-17 07:33 34.67498 114.58463 39077 ft 518 kts 357°
2026-04-17 07:34 34.74629 114.59141 39074 ft 518 kts 358°
2026-04-17 07:34 34.81870 114.59831 39076 ft 517 kts 358°
2026-04-17 07:35 34.88979 114.60510 39077 ft 517 kts 358°
2026-04-17 07:35 34.96165 114.61197 39074 ft 516 kts 358°
2026-04-17 07:36 35.03339 114.61885 39067 ft 515 kts 358°
2026-04-17 07:36 35.10472 114.62569 39068 ft 515 kts 358°
2026-04-17 07:37 35.17609 114.63256 39068 ft 514 kts 358°
2026-04-17 07:37 35.24744 114.63943 39065 ft 514 kts 358°
2026-04-17 07:38 35.31850 114.64629 39061 ft 513 kts 358°
2026-04-17 07:38 35.38971 114.65318 39059 ft 513 kts 358°
2026-04-17 07:39 35.46075 114.66006 39055 ft 512 kts 358°
2026-04-17 07:39 35.53151 114.66692 39057 ft 512 kts 358°
2026-04-17 07:40 35.60268 114.67382 39056 ft 512 kts 358°
2026-04-17 07:40 35.67364 114.68073 39053 ft 512 kts 358°
2026-04-17 07:41 35.74207 114.68740 39052 ft 512 kts 358°
2026-04-17 07:41 35.81230 114.69426 39052 ft 512 kts 358°
2026-04-17 07:42 35.88266 114.70115 39048 ft 511 kts 358°
2026-04-17 07:42 35.95446 114.70820 39041 ft 511 kts 358°
2026-04-17 07:43 36.01746 114.71440 39043 ft 511 kts 358°
2026-04-17 07:43 36.08271 114.72082 39037 ft 511 kts 358°
2026-04-17 07:44 36.15271 114.72771 39039 ft 510 kts 358°
2026-04-17 07:44 36.22365 114.73463 39036 ft 510 kts 358°
2026-04-17 07:45 36.29439 114.74157 39036 ft 510 kts 358°
2026-04-17 07:45 36.36461 114.75199 39032 ft 517 kts
2026-04-17 07:46 36.43284 114.78277 39035 ft 526 kts 18°
2026-04-17 07:46 36.49948 114.82081 39030 ft 527 kts 19°
2026-04-17 07:47 36.56562 114.85977 39025 ft 527 kts 19°
2026-04-17 07:47 36.63208 114.89875 39029 ft 526 kts 19°
2026-04-17 07:48 36.69790 114.93712 39019 ft 526 kts 19°
2026-04-17 07:48 36.76479 114.97608 39019 ft 526 kts 19°
2026-04-17 07:49 36.83046 115.01441 39020 ft 525 kts 19°
2026-04-17 07:49 36.89679 115.05320 39023 ft 525 kts 19°
2026-04-17 07:50 36.96294 115.09197 39021 ft 525 kts 19°
2026-04-17 07:50 37.02941 115.13102 39020 ft 525 kts 19°
2026-04-17 07:51 37.09556 115.16995 39018 ft 525 kts 19°
2026-04-17 07:51 37.16108 115.20857 39015 ft 525 kts 19°
2026-04-17 07:52 37.22692 115.24745 39015 ft 524 kts 19°
2026-04-17 07:52 37.29319 115.28667 39018 ft 524 kts 19°
2026-04-17 07:53 37.35909 115.32576 39015 ft 525 kts 19°